Waarnemingen

Advertentie
Mijn weer
Schaffen, België (6465): temperatuur & dauwpunt: 31.03.2020 16:00:00 - 06.04.2020 16:00:00 (CEST)Schaffen, België (6465): windsnelheid & windstoten: 31.03.2020 16:00:00 - 06.04.2020 16:00:00 (CEST)Schaffen, België (6465): windrichting: 31.03.2020 16:00:00 - 06.04.2020 16:00:00 (CEST)Schaffen, België (6465): luchtdruk: 31.03.2020 16:00:00 - 06.04.2020 16:00:00 (CEST)Schaffen, België (6465): zicht: 31.03.2020 16:00:00 - 06.04.2020 16:00:00 (CEST)
Datum & Tijd tt [°C] td [°C] ff [km/u] ff [kn] fx [km/u] fx [kn] dd ppp [hPa] vv [km]
06.04.2020 16:00:00 22,0 1,4 22 12 36 19 ZZW 1020,0 20
06.04.2020 15:00:00 21,9 4,0 18 10 32 18 ZZW 1019,8 20
06.04.2020 14:00:00 20,8 3,2 18 10 - - ZZW 1019,3 20
06.04.2020 13:00:00 19,6 3,4 14 8 25 14 ZZW 1019,1 20
06.04.2020 12:00:00 18,6 3,3 14 8 29 16 ZZW 1019,0 20
06.04.2020 11:00:00 16,6 2,9 18 10 - - Z 1018,7 20
06.04.2020 10:00:00 14,8 2,7 18 10 25 14 Z 1018,2 20
06.04.2020 09:00:00 12,6 2,3 11 6 18 10 ZZO 1017,7 20
06.04.2020 08:00:00 9,7 1,5 11 6 - - ZZO 1017,2 20
06.04.2020 07:00:00 8,8 0,9 11 6 14 8 ZZO 1016,7 20
06.04.2020 06:00:00 9,7 0,8 11 6 18 10 ZZO 1016,3 20
06.04.2020 05:00:00 10,5 0,7 14 8 - - ZZO 1016,3 20
06.04.2020 04:00:00 11,1 0,5 11 6 14 8 ZZO 1016,6 20
06.04.2020 03:00:00 11,4 0,6 11 6 14 8 ZZO 1016,7 20
06.04.2020 02:00:00 11,9 0,8 11 6 - - ZZO 1016,7 20
06.04.2020 01:00:00 12,3 1,0 11 6 18 10 ZZO 1016,7 20
06.04.2020 00:00:00 13,8 0,7 11 6 18 10 ZO 1016,7 20
05.04.2020 23:00:00 14,9 0,4 7 4 - - ZO 1016,7 20
05.04.2020 22:00:00 15,9 0,7 11 6 18 10 ZO 1016,8 20
05.04.2020 21:00:00 17,3 0,7 11 6 18 10 ZZO 1016,7 20
05.04.2020 20:00:00 19,3 0,5 11 6 - - ZZO 1016,3 20
05.04.2020 19:00:00 20,7 1,5 14 8 29 16 ZZO 1016,3 20
05.04.2020 18:00:00 21,1 1,1 18 10 29 16 ZZO 1016,6 20
05.04.2020 17:00:00 21,8 1,7 18 10 - - ZO 1017,2 20
05.04.2020 16:00:00 20,7 0,5 22 12 36 19 ZZO 1018,0 20
05.04.2020 15:00:00 20,3 0,1 21 11 36 19 ZZO 1018,7 10
05.04.2020 14:00:00 19,4 0,5 22 12 - - ZZO 1019,2 20
05.04.2020 13:00:00 18,7 0,5 18 10 36 19 ZZO 1020,2 20
05.04.2020 12:00:00 17,5 0,8 22 12 36 19 ZZO 1020,8 20
05.04.2020 11:00:00 14,4 1,8 14 8 - - ZO 1021,6 19
05.04.2020 10:00:00 11,8 1,3 18 10 29 16 ZO 1021,8 19
05.04.2020 09:00:00 8,8 0,6 14 8 18 10 OZO 1022,2 19
05.04.2020 08:00:00 5,9 -0,4 11 6 - - ZO 1022,1 20
05.04.2020 07:00:00 4,8 -1,1 7 4 11 6 ZO 1021,8 19
05.04.2020 06:00:00 5,8 -1,2 7 4 11 6 O 1022,0 20
05.04.2020 05:00:00 6,2 -1,3 7 4 - - O 1022,2 20
05.04.2020 04:00:00 6,6 -1,2 4 2 11 6 N 1022,5 20
05.04.2020 03:00:00 7,1 -1,2 7 4 11 6 OZO 1022,6 20
05.04.2020 02:00:00 7,8 -1,3 7 4 - - OZO 1023,1 20
05.04.2020 01:00:00 8,2 -1,8 7 4 11 6 ZO 1023,2 20
05.04.2020 00:00:00 9,3 -2,6 7 4 11 6 O 1023,1 20
04.04.2020 23:00:00 10,0 -3,1 7 4 - - ONO 1023,0 20
04.04.2020 22:00:00 10,6 -2,5 11 6 14 8 O 1023,3 20
04.04.2020 21:00:00 11,8 -1,4 11 6 18 10 ONO 1023,2 20
04.04.2020 20:00:00 13,5 -0,5 7 4 - - N 1022,7 20
04.04.2020 19:00:00 14,1 0,7 7 4 14 8 OZO 1022,6 20
04.04.2020 18:00:00 14,3 0,1 11 6 22 12 OZO 1022,7 20
04.04.2020 17:00:00 14,6 0,8 7 4 - - ZO 1022,8 17
04.04.2020 16:00:00 14,3 0,7 11 6 25 14 ZZO 1023,2 19
04.04.2020 15:00:00 14,1 1,1 7 4 22 12 OZO 1023,7 20
04.04.2020 14:00:00 14,0 1,3 11 6 - - Z 1024,0 20
04.04.2020 13:00:00 12,5 -0,4 11 6 22 12 Z 1024,5 20
04.04.2020 12:00:00 12,0 -1,4 14 8 22 12 ZZO 1025,0 20
04.04.2020 11:00:00 10,6 -2,2 14 8 - - ZZO 1024,9 20
04.04.2020 10:00:00 8,5 -0,4 11 6 14 8 ZZO 1024,5 20
04.04.2020 09:00:00 4,7 -0,2 7 4 11 6 ZZO 1024,5 20
04.04.2020 08:00:00 3,3 -0,9 7 4 - - Z 1024,0 20
04.04.2020 07:00:00 3,0 -1,7 7 4 11 6 ZZO 1023,5 20
04.04.2020 06:00:00 3,3 -1,3 7 4 11 6 ZO 1023,1 20
04.04.2020 05:00:00 3,3 -1,4 7 4 - - ZZO 1023,1 20
04.04.2020 04:00:00 4,0 -1,4 4 2 7 4 N 1023,0 20
04.04.2020 03:00:00 4,0 -1,7 4 2 7 4 N 1022,6 20
04.04.2020 02:00:00 4,5 -1,2 7 4 - - Z 1022,5 20
04.04.2020 01:00:00 4,1 -1,8 4 2 7 4 N 1022,2 20
04.04.2020 00:00:00 4,6 -2,2 4 2 4 2 N 1022,1 20
03.04.2020 23:00:00 5,0 -3,1 4 2 - - N 1021,7 20
03.04.2020 22:00:00 6,5 -4,0 4 2 7 4 N 1021,5 20
03.04.2020 21:00:00 6,7 -4,0 7 4 14 8 NNW 1020,8 20
03.04.2020 20:00:00 7,3 -3,4 11 6 - - N 1020,3 20
03.04.2020 19:00:00 9,1 -3,7 14 8 32 18 WNW 1019,7 20
03.04.2020 18:00:00 10,3 -2,1 18 10 32 18 WNW 1019,2 20
03.04.2020 17:00:00 9,8 -2,3 22 12 - - NW 1018,8 20
03.04.2020 16:00:00 10,9 -1,3 25 14 40 21 W 1018,7 20
03.04.2020 15:00:00 10,9 -1,8 18 10 32 18 WNW 1018,2 20
03.04.2020 14:00:00 10,1 -0,8 14 8 - - W 1018,2 20
03.04.2020 13:00:00 8,8 -1,6 22 12 32 18 W 1018,1 20
03.04.2020 12:00:00 9,5 2,5 18 10 29 16 W 1017,5 19
03.04.2020 11:00:00 9,2 3,5 14 8 - - WNW 1016,8 18
03.04.2020 10:00:00 8,5 3,8 14 8 22 12 W 1016,2 19
03.04.2020 09:00:00 7,2 3,5 11 6 14 8 WZW 1015,7 18
03.04.2020 08:00:00 5,8 2,8 11 6 - - WZW 1015,2 18
03.04.2020 07:00:00 6,0 3,0 11 6 18 10 W 1014,5 17
03.04.2020 06:00:00 6,5 4,1 11 6 18 10 WZW 1014,2 14
03.04.2020 05:00:00 6,5 4,3 11 6 - - WZW 1013,6 13
03.04.2020 04:00:00 6,7 4,2 11 6 22 12 WZW 1013,2 15
03.04.2020 03:00:00 7,5 4,2 11 6 22 12 WZW 1013,1 19
03.04.2020 02:00:00 7,3 3,5 11 6 - - WZW 1013,1 19
03.04.2020 01:00:00 6,8 2,5 7 4 18 10 WZW 1013,2 20
03.04.2020 00:00:00 7,8 2,4 11 6 18 10 WZW 1013,2 20
02.04.2020 23:00:00 7,5 2,1 9 5 - - WZW 1013,5 10
02.04.2020 22:00:00 7,5 1,0 7 4 11 6 ZW 1013,5 15
02.04.2020 21:00:00 7,9 1,1 7 4 11 6 ZZW 1013,1 17
02.04.2020 20:00:00 8,7 0,9 7 4 - - WZW 1013,5 19
02.04.2020 19:00:00 9,0 0,4 11 6 29 16 WZW 1013,6 20
02.04.2020 18:00:00 9,1 0,4 14 8 29 16 W 1013,6 20
02.04.2020 17:00:00 9,4 0,6 14 8 - - W 1013,7 20
02.04.2020 16:00:00 9,3 0,1 14 8 25 14 W 1014,2 20
02.04.2020 15:00:00 9,4 -0,5 14 8 25 14 W 1014,2 20
02.04.2020 14:00:00 9,4 -0,8 11 6 - - WNW 1014,8 20
02.04.2020 13:00:00 8,6 -1,5 11 6 22 12 W 1015,3 20
02.04.2020 12:00:00 7,9 -1,4 11 6 18 10 ZZW 1016,0 20
02.04.2020 11:00:00 7,0 -0,7 7 4 - - W 1016,5 20
02.04.2020 10:00:00 5,1 0,7 7 4 11 6 WZW 1016,5 19
02.04.2020 09:00:00 1,6 0,2 7 4 11 6 WZW 1016,7 7
02.04.2020 08:00:00 0,5 -0,3 5 3 - - ZW 1016,8 6
02.04.2020 07:00:00 0,7 -0,3 4 2 7 4 N 1016,7 6
02.04.2020 06:00:00 1,2 0,0 7 4 7 4 WZW 1017,0 10
02.04.2020 05:00:00 1,6 0,0 4 2 - - N 1017,3 11
02.04.2020 04:00:00 1,2 -0,4 7 4 11 6 WNW 1017,8 9
02.04.2020 03:00:00 2,1 0,0 7 4 7 4 NNW 1018,1 15
02.04.2020 02:00:00 2,5 0,1 4 2 - - N 1018,3 19
02.04.2020 01:00:00 2,3 -0,1 11 6 14 8 NNW 1018,7 18
02.04.2020 00:00:00 3,1 -0,1 11 6 18 10 NNW 1019,0 20
01.04.2020 23:00:00 4,1 -0,2 14 8 - - NNW 1019,0 20
01.04.2020 22:00:00 4,7 -1,0 11 6 18 10 NNW 1019,2 20
01.04.2020 21:00:00 6,2 -2,6 14 8 18 10 N 1018,7 14
01.04.2020 20:00:00 8,4 -4,1 7 4 - - NNW 1018,6 20
01.04.2020 19:00:00 9,5 -4,5 11 6 18 10 N 1018,8 20
01.04.2020 18:00:00 10,4 -3,6 7 4 14 8 NO 1019,1 20
01.04.2020 17:00:00 10,4 -4,8 11 6 - - N 1019,7 20
01.04.2020 16:00:00 9,9 -5,2 7 4 18 10 NNW 1020,5 19
01.04.2020 15:00:00 9,8 -5,2 7 4 14 8 NO 1021,2 20
01.04.2020 14:00:00 8,4 -5,4 7 4 - - N 1022,0 20
01.04.2020 13:00:00 8,4 -4,0 4 2 14 8 N 1022,8 19
01.04.2020 12:00:00 8,0 -3,4 7 4 14 8 NO 1023,7 20
01.04.2020 11:00:00 5,4 -2,5 4 2 - - N 1024,5 20
01.04.2020 10:00:00 3,5 -2,2 4 2 4 2 N 1024,7 19
01.04.2020 09:00:00 0,5 -2,7 4 2 4 2 N 1024,9 16
01.04.2020 08:00:00 -0,7 -3,2 4 2 - - N 1025,0 14
01.04.2020 07:00:00 -1,0 -3,4 4 2 7 4 N 1025,0 14
01.04.2020 06:00:00 -0,3 -2,9 4 2 4 2 N 1025,2 16
01.04.2020 05:00:00 0,2 -2,8 4 2 - - N 1025,5 20
01.04.2020 04:00:00 0,5 -3,1 7 4 11 6 N 1026,4 20
01.04.2020 03:00:00 0,8 -3,7 7 4 7 4 N 1026,7 20
01.04.2020 02:00:00 1,2 -4,9 7 4 - - N 1027,2 20
01.04.2020 01:00:00 1,8 -6,2 7 4 11 6 N 1027,5 20
01.04.2020 00:00:00 3,7 -6,5 4 2 7 4 N 1027,7 20
31.03.2020 23:00:00 4,6 -6,3 4 2 - - N 1028,0 20
31.03.2020 22:00:00 4,6 -6,6 4 2 11 6 N 1028,4 20
31.03.2020 21:00:00 6,0 -6,7 7 4 14 8 NO 1028,5 20
31.03.2020 20:00:00 6,9 -6,0 4 2 - - N 1028,5 20
31.03.2020 19:00:00 8,6 -6,5 11 6 25 14 NO 1028,7 20
31.03.2020 18:00:00 8,9 -7,6 14 8 25 14 ONO 1028,7 20
31.03.2020 17:00:00 9,3 -6,9 14 8 - - ONO 1029,0 20
31.03.2020 16:00:00 9,4 -5,2 14 8 25 14 NO 1029,4 20

tt = temperatuur
td = dauwpunt
ff = windsnelheid
fx = windstoten
dd = windrichting
ppp = luchtdruk
vv = zicht

Weerstations in de omgeving